{"data":{"norad_id":31490,"intl_designator":"2007-019A","name":"YAOGAN-2","alt_names":[],"object_type":"PAYLOAD","status":"ACTIVE","operator":null,"country":"PRC","launch_date":"2007-05-25","launch_site_code":"JSC","launch_vehicle":null,"mission":null,"orbit_class":"UNKNOWN","rcs_meters":3.0627,"size_class":null,"mass_kg":null,"dimensions":null,"purposes":[],"wikipedia_slug":null,"has_3d_model":false,"image_url":null,"decayed_at":null,"tle_current":{"epoch":"2026-09-19T08:42:35.429184Z","epoch_age_seconds":120252,"freshness":"FRESH","line1":"1 31490U 07019A   26262.36291006  .00000461  00000+0  64044-4 0  9991","line2":"2 31490  98.2500 126.0213 0019945 333.3143  26.7041 14.82785920 41579","mean_motion":14.8278592,"eccentricity":0.0019945,"inclination_deg":98.25,"raan_deg":126.0213,"arg_perigee_deg":333.3143,"mean_anomaly_deg":26.7041,"bstar":6.4044e-5,"rev_number":4157,"period_min":97.114491079063,"perigee_km":606.58524106425,"apogee_km":634.50298001419,"semimajor_km":6998.6811105392,"source":"CELESTRAK","updated_at":"2026-09-20T09:00:13.654325Z"}}}